Alpena, MI

4:02 PM EDT on August 23, 2017 (GMT -0400)
Alpena County Regional

Weather History for KAPN - July, 2013

Change the Weather History Date:

Monday, July 22, 2013

  Actual Average Record
Temperature  
Mean Temperature 72 °F 68 °F  
Max Temperature 84 °F 80 °F 97 °F (1918)
Min Temperature 60 °F 56 °F 42 °F (1966)
Degree Days  
Heating Degree Days 0 1  
Month to date heating degree days 25 32  
Since 1 June heating degree days 161 175  
Since 1 July heating degree days 25 32  
Cooling Degree Days 7 4  
Month to date cooling degree days 123 85  
Year to date cooling degree days 200 154  
Since 1 June cooling degree days 187 141  
Growing Degree Days 22 (Base 50)    
Moisture  
Dew Point 62 °F    
Average Humidity 71    
Maximum Humidity 93    
Minimum Humidity 48    
Precipitation  
Precipitation 0.08 in 0.10 in 1.73 in (1971)
Month to date precipitation 1.22 2.19  
Year to date precipitation 18.18 14.71  
Sea Level Pressure  
Sea Level Pressure 29.84 in    
Wind  
Wind Speed 9 mph (South)    
Max Wind Speed 18 mph    
Max Gust Speed 24 mph    
Visibility 10 miles    
Events Rain    
T = Trace of Precipitation, MM = Missing Value Source: NWS Daily Summary

Daily Weather History Graph

Daily Weather History Graph

Search for Another Location

Airport or City:

Trip Planner

Search our weather history database for the weather conditions in past years. The results will help you decide how hot, cold, wet, or windy it might be!

Date:

Astronomy

Jul. 22, 2013 Rise Set
Actual Time 6:08 AM EDT 9:12 PM EDT
Civil Twilight 5:33 AM EDT 9:47 PM EDT
Nautical Twilight 4:48 AM EDT 10:31 PM EDT
Astronomical Twilight 3:53 AM EDT 11:25 PM EDT
Moon 8:52 PM EDT (7/22) 6:06 AM EDT (7/22)
Length of Visible Light 16h 13m
Length of Day
15h 03m
Full, 100% of the Moon is Illuminated
Jul 22
Full
Jul 22
Full
Jul 29
Last Quarter
Aug 6
New
Aug 14
First Quarter

Hourly Weather History & Observations

Time (EDT) Temp. Heat Index Dew Point Humidity Pressure Visibility Wind Dir Wind Speed Gust Speed Precip Events Conditions
12:54 AM 61.0 °F - 55.0 °F 81% 29.99 in 10.0 mi SSE 3.5 mph - N/A   Overcast
1:54 AM 61.0 °F - 55.0 °F 81% 29.97 in 10.0 mi South 4.6 mph - N/A   Mostly Cloudy
2:54 AM 60.1 °F - 55.9 °F 86% 29.96 in 10.0 mi South 5.8 mph - N/A   Overcast
3:54 AM 62.1 °F - 57.0 °F 84% 29.95 in 10.0 mi Calm Calm - N/A   Overcast
4:54 AM 62.1 °F - 57.9 °F 86% 29.94 in 10.0 mi SSE 3.5 mph - N/A   Overcast
5:54 AM 61.0 °F - 59.0 °F 93% 29.94 in 6.0 mi SE 3.5 mph - 0.04 in Rain Rain
6:54 AM 62.1 °F - 60.1 °F 93% 29.92 in 10.0 mi SE 4.6 mph - 0.04 in   Mostly Cloudy
7:54 AM 64.9 °F - 62.1 °F 90% 29.92 in 10.0 mi SSE 5.8 mph - N/A   Clear
8:30 AM 66.2 °F - 60.8 °F 83% 29.92 in 10.0 mi SSE 5.8 mph - N/A   Mostly Cloudy
8:54 AM 69.1 °F - 61.0 °F 75% 29.91 in 10.0 mi SSE 6.9 mph - N/A   Partly Cloudy
9:54 AM 72.0 °F - 62.1 °F 71% 29.90 in 10.0 mi SSE 10.4 mph - N/A   Clear
10:54 AM 73.9 °F - 63.0 °F 68% 29.88 in 10.0 mi South 10.4 mph - N/A   Partly Cloudy
11:54 AM 75.9 °F - 64.0 °F 67% 29.87 in 10.0 mi South 10.4 mph - N/A   Overcast
12:04 PM 75.2 °F - 64.4 °F 69% 29.87 in 10.0 mi South 6.9 mph - N/A   Overcast
12:23 PM 78.8 °F - 64.4 °F 61% 29.86 in 10.0 mi South 12.7 mph - N/A   Scattered Clouds
12:54 PM 78.1 °F - 63.0 °F 60% 29.85 in 10.0 mi South 12.7 mph 18.4 mph N/A   Mostly Cloudy
1:54 PM 80.1 °F 81.5 °F 63.0 °F 56% 29.83 in 10.0 mi South 11.5 mph - N/A   Mostly Cloudy
2:54 PM 82.0 °F 83.0 °F 62.1 °F 51% 29.81 in 10.0 mi SSW 12.7 mph 19.6 mph N/A   Partly Cloudy
3:54 PM 82.9 °F 84.0 °F 63.0 °F 51% 29.78 in 10.0 mi South 13.8 mph - N/A   Mostly Cloudy
4:54 PM 84.0 °F 84.5 °F 62.1 °F 47% 29.75 in 10.0 mi South 10.4 mph 20.7 mph N/A   Scattered Clouds
5:54 PM 82.9 °F 84.4 °F 64.0 °F 53% 29.73 in 10.0 mi South 16.1 mph 21.9 mph N/A   Scattered Clouds
6:54 PM 82.9 °F 84.4 °F 64.0 °F 53% 29.71 in 10.0 mi South 17.3 mph 21.9 mph N/A   Clear
7:54 PM 79.0 °F - 66.0 °F 64% 29.71 in 10.0 mi South 10.4 mph - N/A   Clear
8:54 PM 77.0 °F - 66.9 °F 71% 29.70 in 10.0 mi South 9.2 mph - N/A   Clear
9:54 PM 75.0 °F - 66.9 °F 76% 29.70 in 10.0 mi South 9.2 mph - N/A   Clear
10:54 PM 75.9 °F - 66.0 °F 71% 29.69 in 10.0 mi South 8.1 mph - N/A   Clear
11:54 PM 73.9 °F - 64.9 °F 73% 29.69 in 10.0 mi South 5.8 mph - N/A   Scattered Clouds